Torna al catalogo

BLOCK DM-SL R/B

AttivoHEO
NORAD 29237·ROCKET BODY· XX

Lanciato Jun 18, 2006 da Sea Launch Platform

Loading…

Prossimi Passaggi (prossime 24 ore)

TLE

AggiornatoSource: Space-Track

Epoca: Sep 14, 2026, 13:39 UTC

1 29237U 06023B   26257.56929318 -.00000074  00000-0  00000-0 0  9991
2 29237   1.0078  23.5994 6626707  65.9191 347.9715  2.15891221159606

Traccia BLOCK DM-SL R/B in tempo reale con AllMySat

Download on the App Store